Powrót do katalogu

COSMOS 2251 DEB

AktywnyLEO
NORAD 37971·DEBRIS·🇷🇺 Russia

Wystrzelony Jun 16, 1993 z Plesetsk Cosmodrome

Loading…

Następne Przeloty (najbliższe 24 godziny)

TLE

ŚwieżeSource: Space-Track

Epoka: Sep 13, 2026, 06:52 UTC

1 37971U 93036BPW 26256.28641426  .00004924  00000-0  11956-2 0  9995
2 37971  73.9891 244.4481 0070417 312.8439  46.6817 14.51644362646589

Śledź COSMOS 2251 DEB w czasie rzeczywistym z AllMySat

Download on the App Store